Weather History for Point Pleasant, WV

Change the Weather History Date:

Tuesday, July 30, 2013

  Actual Average (KHTS) Record (KHTS)
Temperature  
Mean Temperature 72 °F 76 °F  
Max Temperature 86 °F 86 °F 101 °F (1999)
Min Temperature 59 °F 65 °F 54 °F (1914)
Degree Days  
Heating Degree Days 0 0  
Month to date heating degree days 0  
Since 1 June heating degree days 12  
Since 1 July heating degree days 0  
Cooling Degree Days 8 11  
Month to date cooling degree days 327  
Year to date cooling degree days 665  
Since 1 June cooling degree days 552  
Growing Degree Days 22 (Base 50)    
Moisture  
Dew Point 62 °F    
Average Humidity 76    
Maximum Humidity 100    
Minimum Humidity 37    
Precipitation  
Precipitation 0.00 in 0.14 in 2.81 in (2011)
Month to date precipitation 4.40  
Year to date precipitation 26.36  
Snow  
Snow 0.00 in - - ()
Month to date snowfall  
Since 1 September snowfall  
Snow Depth -    
Sea Level Pressure  
Sea Level Pressure 30.21 in    
Wind  
Wind Speed 0 mph (West)    
Max Wind Speed 5 mph    
Max Gust Speed -    
Visibility 9 miles    
Events Fog    
T = Trace of Precipitation, MM = Missing Value Source: NWS Daily Summary

Daily Weather History Graph

Daily Weather History Graph

Search for Another Location

Airport:

Trip Planner

Search our weather history database for the weather conditions in past years. The results will help you decide how hot, cold, wet, or windy it might be!

Date:

Astronomy

Jul. 30, 2013 Rise Set
Actual Time 6:27 AM EDT 8:41 PM EDT
Civil Twilight 5:57 AM EDT 9:11 PM EDT
Nautical Twilight 5:21 AM EDT 9:47 PM EDT
Astronomical Twilight 4:41 AM EDT 10:27 PM EDT
Moon 12:44 AM EDT (7/30) 3:00 PM EDT (7/30)
Length of Visible Light 15h 13m
Length of Day
14h 13m
Last Quarter, 41% of the Moon is Illuminated
Jul 30
Last Quarter
Aug 6
New
Aug 14
First Quarter
Aug 20
Full
Aug 28
Last Quarter

Hourly Weather History & Observations

Time (EDT) Temp. Heat Index Dew Point Humidity Pressure Visibility Wind Dir Wind Speed Gust Speed Precip Events Conditions
12:15 AM 64.4 °F - 62.6 °F 94% 30.22 in 10.0 mi Calm Calm - N/A   Scattered Clouds
12:35 AM 64.4 °F - 62.6 °F 94% 30.23 in 10.0 mi Calm Calm - N/A   Scattered Clouds
12:55 AM 62.6 °F - 60.8 °F 94% 30.22 in 7.0 mi Calm Calm - N/A   Scattered Clouds
1:15 AM 62.6 °F - 62.6 °F 100% 30.23 in 10.0 mi Calm Calm - N/A   Clear
1:35 AM 62.6 °F - 60.8 °F 94% 30.22 in 7.0 mi Calm Calm - N/A   Clear
1:55 AM 62.6 °F - 60.8 °F 94% 30.22 in 10.0 mi Calm Calm - N/A   Clear
2:15 AM 62.6 °F - 60.8 °F 94% 30.22 in 10.0 mi Calm Calm - N/A   Mostly Cloudy
2:35 AM 60.8 °F - 59.0 °F 94% 30.22 in 10.0 mi Calm Calm - N/A   Mostly Cloudy
2:55 AM 60.8 °F - 59.0 °F 94% 30.22 in 10.0 mi Calm Calm - N/A   Clear
3:15 AM 60.8 °F - 59.0 °F 94% 30.22 in 7.0 mi Calm Calm - N/A   Scattered Clouds
3:35 AM 60.8 °F - 59.0 °F 94% 30.22 in 10.0 mi Calm Calm - N/A   Scattered Clouds
3:55 AM 60.8 °F - 59.0 °F 94% 30.22 in 10.0 mi Calm Calm - N/A   Scattered Clouds
4:15 AM 60.8 °F - 59.0 °F 94% 30.22 in 10.0 mi Calm Calm - N/A   Scattered Clouds
4:35 AM 60.8 °F - 59.0 °F 94% 30.23 in 10.0 mi Calm Calm - N/A   Scattered Clouds
4:55 AM 59.0 °F - 59.0 °F 100% 30.23 in 10.0 mi Calm Calm - N/A   Mostly Cloudy
5:15 AM 59.0 °F - 57.2 °F 94% 30.23 in 10.0 mi Calm Calm - N/A   Scattered Clouds
5:35 AM 59.0 °F - 59.0 °F 100% 30.23 in 7.0 mi Calm Calm - N/A   Mostly Cloudy
5:55 AM 59.0 °F - 59.0 °F 100% 30.24 in 10.0 mi Calm Calm - N/A   Overcast
6:15 AM 60.8 °F - 59.0 °F 94% 30.24 in 0.8 mi Calm Calm - N/A   Overcast
6:35 AM 60.8 °F - 59.0 °F 94% 30.24 in 0.2 mi Calm Calm - N/A Fog Fog
6:55 AM 60.8 °F - 59.0 °F 94% 30.24 in 0.2 mi Calm Calm - N/A Fog Fog
7:15 AM 60.8 °F - 59.0 °F 94% 30.25 in 0.2 mi Calm Calm - N/A Fog Fog
7:35 AM 60.8 °F - 60.8 °F 100% 30.25 in 2.5 mi Calm Calm - N/A   Overcast
7:55 AM 60.8 °F - 60.8 °F 100% 30.25 in 10.0 mi Calm Calm - N/A   Scattered Clouds
8:15 AM 62.6 °F - 62.6 °F 100% 30.26 in 10.0 mi Calm Calm - N/A   Scattered Clouds
8:35 AM 64.4 °F - 62.6 °F 94% 30.26 in 10.0 mi Calm Calm - N/A   Mostly Cloudy
8:55 AM 64.4 °F - 62.6 °F 94% 30.26 in 10.0 mi Calm Calm - N/A   Scattered Clouds
9:15 AM 66.2 °F - 62.6 °F 88% 30.26 in 10.0 mi Calm Calm - N/A   Scattered Clouds
9:35 AM 68.0 °F - 62.6 °F 83% 30.26 in 10.0 mi Calm Calm - N/A   Clear
9:55 AM 69.8 °F - 62.6 °F 78% 30.27 in 10.0 mi Calm Calm - N/A   Clear
10:15 AM 71.6 °F - 64.4 °F 78% 30.26 in 10.0 mi Calm Calm - N/A   Clear
10:35 AM 73.4 °F - 62.6 °F 69% 30.25 in 10.0 mi SSW 3.5 mph - N/A   Clear
10:55 AM 75.2 °F - 62.6 °F 65% 30.25 in 10.0 mi Calm Calm - N/A   Clear
11:15 AM 77.0 °F - 62.6 °F 61% 30.24 in 10.0 mi Calm Calm - N/A   Clear
11:35 AM 78.8 °F - 62.6 °F 57% 30.24 in 10.0 mi Calm Calm - N/A   Clear
11:55 AM 80.6 °F 81.8 °F 62.6 °F 54% 30.24 in 10.0 mi Calm Calm - N/A   Clear
12:15 PM 80.6 °F 81.5 °F 60.8 °F 51% 30.23 in 10.0 mi Calm Calm - N/A   Clear
12:55 PM 84.2 °F 83.8 °F 59.0 °F 42% 30.22 in 10.0 mi West 3.5 mph - N/A   Clear
1:15 PM 82.4 °F 82.5 °F 59.0 °F 45% 30.22 in 10.0 mi Calm Calm - N/A   Scattered Clouds
1:35 PM 86.0 °F 86.1 °F 60.8 °F 43% 30.23 in 10.0 mi Calm Calm - N/A   Scattered Clouds
2:15 PM 82.4 °F 82.9 °F 60.8 °F 48% 30.21 in 10.0 mi Calm Calm - N/A   Scattered Clouds
2:35 PM 82.4 °F 82.9 °F 60.8 °F 48% 30.21 in 10.0 mi Calm Calm - N/A   Scattered Clouds
2:55 PM 84.2 °F 83.8 °F 59.0 °F 42% 30.20 in 10.0 mi WNW 3.5 mph - N/A   Clear
3:15 PM 86.0 °F 84.9 °F 57.2 °F 37% 30.20 in 10.0 mi WNW 3.5 mph - N/A   Clear
3:35 PM 84.2 °F 83.8 °F 59.0 °F 42% 30.20 in 10.0 mi West 4.6 mph - N/A   Clear
3:55 PM 82.4 °F 82.5 °F 59.0 °F 45% 30.19 in 10.0 mi Calm Calm - N/A   Clear
4:15 PM 84.2 °F 83.8 °F 59.0 °F 42% 30.19 in 10.0 mi Calm Calm - N/A   Clear
4:35 PM 84.2 °F 84.4 °F 60.8 °F 45% 30.19 in 10.0 mi Calm Calm - N/A   Clear
4:55 PM 82.4 °F 82.9 °F 60.8 °F 48% 30.19 in 10.0 mi Calm Calm - N/A   Clear
5:15 PM 82.4 °F 82.5 °F 59.0 °F 45% 30.18 in 10.0 mi SW 4.6 mph - N/A   Clear
5:35 PM 80.6 °F 81.1 °F 59.0 °F 48% 30.19 in 10.0 mi WSW 3.5 mph - N/A   Clear
5:55 PM 82.4 °F 82.9 °F 60.8 °F 48% 30.19 in 10.0 mi Calm Calm - N/A   Clear
6:15 PM 80.6 °F 81.5 °F 60.8 °F 51% 30.18 in 10.0 mi Calm Calm - N/A   Clear
6:35 PM 80.6 °F 81.8 °F 62.6 °F 54% 30.18 in 10.0 mi Calm Calm - N/A   Clear
6:55 PM 78.8 °F - 64.4 °F 61% 30.17 in 10.0 mi Calm Calm - N/A   Clear
7:15 PM 78.8 °F - 66.2 °F 65% 30.18 in 10.0 mi Calm Calm - N/A   Clear
7:35 PM 77.0 °F - 66.2 °F 69% 30.17 in 10.0 mi Calm Calm - N/A   Clear
7:55 PM 75.2 °F - 66.2 °F 73% 30.17 in 10.0 mi Calm Calm - N/A   Clear
8:15 PM 73.4 °F - 66.2 °F 78% 30.17 in 10.0 mi Calm Calm - N/A   Clear
8:35 PM 73.4 °F - 66.2 °F 78% 30.17 in 10.0 mi Calm Calm - N/A   Clear
8:55 PM 71.6 °F - 66.2 °F 83% 30.16 in 10.0 mi Calm Calm - N/A   Clear
9:15 PM 71.6 °F - 66.2 °F 83% 30.16 in 10.0 mi Calm Calm - N/A   Clear
9:35 PM 69.8 °F - 68.0 °F 94% 30.17 in 10.0 mi Calm Calm - N/A   Clear
9:55 PM 69.8 °F - 66.2 °F 88% 30.17 in 10.0 mi Calm Calm - N/A   Clear
10:15 PM 69.8 °F - 66.2 °F 88% 30.17 in 10.0 mi Calm Calm - N/A   Clear
10:35 PM 69.8 °F - 66.2 °F 88% 30.17 in 10.0 mi Calm Calm - N/A   Clear
10:55 PM 69.8 °F - 66.2 °F 88% 30.17 in 7.0 mi Calm Calm - N/A   Clear
11:15 PM 69.8 °F - 66.2 °F 88% 30.17 in 7.0 mi Calm Calm - N/A   Clear
11:35 PM 69.8 °F - 66.2 °F 88% 30.17 in 7.0 mi Calm Calm - N/A   Clear
11:55 PM 69.8 °F - 66.2 °F 88% 30.17 in 10.0 mi Calm Calm - N/A   Clear